DELTA 1 DEB, 37671

Orbit data source: Space-Track

DELTA 1 DEB, 37671 is space debris in SSO originally from a launch on Sun, 05 Mar 1978 UTC launched from the Air Force Western Test Range (AFWTR). Debris objects in space refer to the collection of defunct objects orbiting the Earth. Examples of debris include non-operational satellites, rocket bodies, and fragments generated from explosions, collisions, or faulty payload assembly.

Loading next visibility...
Identifier
37671, 1978-026KJ
Orbit
SSO
Country
Flag of USUS
Related business
Manufacturer
Unknown
Mission
Spacecraft
Bus & Motor
Unknown
Mass
Unknown
Launch date (UTC)
1978-03-05 (48 years ago)
Launch vehicle
Unknown
Launch site
Air Force Western Test Range (AFWTR)
Object type
Payload
Rocket body
Debris
Shape & HBR
Unknown shape, 0.1 m
Radar Cross Section
Small (<0.1 m²)

Expand to show TLE details & history
Last TLE update: 4 days ago

TLE from 4 days ago
0 DELTA 1 DEB
1 37671U 78026KJ  26169.35397340  .00000575  00000-0  24379-3 0  9990
2 37671  98.7913 205.8282 0028693 148.5527 211.7377 14.29044048672245
Epoch: 2026-06-18T08:29Z
TLE epoch observation values (Epoch: 2026-06-18T08:29:43.301Z)
Latitude
-0.00002°
Longitude
171.79927°
Altitude
815.376 km
Speed
7.436 km/s
True Right ascension
13h 43m 18s
True Declination
0° 00' 00"
Sunlit
Object was in daylight at epoch
Visualization orbit readout
Latitude
Unknown
Longitude
Unknown
Altitude
Unknown
Speed
Unknown
Apparent Right ascension
Unknown
Apparent Declination
Unknown
Sunlit
N/A
Visualization observer readout
Local Sidereal Time
03:57:37
Azimuth
Unknown
Elevation
Unknown
Doppler factor
Unknown
Orbital elements
Apogee altitude
812.652 km
Perigee altitude
771.505 km
Semi-major axis
7,170.215 km
Eccentricity
0.00287
Inclination
98.7913°
RAAN
205.8282°
Arg. of periapsis
148.5527°
True anomaly
211.56527°
Mean anomaly
211.7377°
Eccentric anomaly
211.65143°
Mean motion
3.57474 °/min
Orbital period
100.71 mins
BSTAR
0.00024379
Loading maneuver chart data...
Computing Atmospheric mass density...

Documentation

Showing up to 5 results
|